Regional Weather Roundup
Issued by NWS

Home | Current Version | Previous Version | Graphics & Text | Print | Product List | Glossary On
Versions: 1 2 3 4 5 6 7 8 9 10 11 12 13 14 15 16 17 18 19 20 21 22 23 24 25 26 27 28
000
ASUS45 KBOU 291707
RWRCO

WEATHER ROUNDUP FOR COLORADO
NATIONAL WEATHER SERVICE DENVER/BOULDER CO
1100 AM MDT SAT APR 29 2017

NOTE: "FAIR" INDICATES FEW OR NO CLOUDS BELOW 12000 FEET WITH NO
SIGNIFICANT WEATHER AND/OR OBSTRUCTIONS TO VISIBILITY.

COZ001>005-013-030-031-291800-
...NORTHWEST COLORADO...

CITY           SKY/WX    TMP DP  RH WIND       PRES   REMARKS
CRAIG          FAIR      40  17  39 NE10      30.11R
HAYDEN         FAIR      37  14  38 SE9       30.09S
MEEKER         CLOUDY    39  24  55 NE20      30.07R
MOUNT WERNER   NOT AVBL
STEAMBOAT SPGS CLOUDY    34  15  46 CALM      30.10R
WALDEN           N/A     27  12  54 NE16      30.12R WCI  14
$$

COZ006>008-011-291800-
...WEST CENTRAL VALLEYS...

CITY           SKY/WX    TMP DP  RH WIND       PRES   REMARKS
GRAND JUNCTION PTSUNNY   49  22  34 N12       30.03R
MONTROSE       FAIR      41  32  70 N9        30.02R
EAGLE          CLOUDY    36  16  44 W7        30.09R
RIFLE          FAIR      43  19  38 W5        30.04R
DELTA          FAIR      49  32  52 SE7       30.00R
NUCLA          PTSUNNY   46  19  34 NE12G20   30.00R
$$

COZ017>023-064>068-291800-
...SOUTHWEST COLORADO...

CITY           SKY/WX    TMP DP  RH WIND       PRES   REMARKS
DURANGO        FAIR      37  24  59 E5        29.93R
CORTEZ         PTSUNNY   41  31  67 SE5       29.95R
PAGOSA SPRINGS CLOUDY    36  15  42 NE10      29.92R
TELLURIDE      CLOUDY    31  23  73 W7        29.95R WCI  24
WOLF CREEK PAS LGT SNOW  12  12 100 N16G28    29.95R VSB 3/4 WCI  -4
$$

COZ009-010-012-014-032>034-037-058>063-291800-
...CENTRAL COLORADO...

CITY           SKY/WX    TMP DP  RH WIND       PRES   REMARKS
ASPEN          PTSUNNY   34  14  43 CALM      29.99S
BUENA VISTA    CLOUDY    27  18  68 CALM      30.09R
COPPER MTN     LGT SNOW  19  10  68 CALM      30.01R
BERTHOUD PASS  SNOW       5  -4  66 E7G25     30.01R VSB 1/4 WCI  -7
COTTONWOOD PAS LGT SNOW  23  19  86 SE6       30.05R WCI  16
GUNNISON       FAIR      33  13  43 VRB6      29.99R WCI  28
KREMMLING      CLOUDY    34  25  69 NW8       30.11R WCI  27
LEADVILLE      LGT SNOW  17  13  84 S8        30.01R FOG     WCI   7
MONARCH PASS   CLOUDY    10   7  85 E45G53    29.98R WCI -15
SALIDA         CLOUDY    29  24  81 N8        30.16R WCI  21
SUNLIGHT       CLOUDY    18  12  79 NE5       30.05R WCI  11
WILKERSON PASS CLOUDY   N/A N/A N/A NE8G16    30.04R
$$

COZ069>075-291800-
...SAN LUIS VALLEY/SANGRE DE CRISTO MOUNTAINS...

CITY           SKY/WX    TMP DP  RH WIND       PRES   REMARKS
ALAMOSA        CLOUDY    33  15  47 NE23G37   29.95R WCI  21
LA VETA PASS   HVY SNOW  16  12  86 N26G43    30.03F VSB<1/4 WCI  -3
SAGUACHE       CLOUDY    32  10  40 E12G21    30.00R WCI  23
$$

COZ035-036-038>040-291800-
...NORTHERN COLORADO FRONT RANGE...

CITY           SKY/WX    TMP DP  RH WIND       PRES   REMARKS
DENVER INTL AP LGT SNOW  30  26  85 N17       30.18S VSB 1   WCI  18
DMNS CITY PARK   N/A     30  30  98 N8G16     30.19S WCI  23
AURORA         LGT SNOW  29  28  98 N10       30.18S FOG     WCI  19
FRONT RANGE AP LGT SNOW  30  30 100 N13       30.18F VSB 3/4 WCI  20
ERIE MUNI ARPT LGT SNOW  32  31  94 N13       30.22R VSB 3/4 WCI  22
BOULDER MUN AP SNOW      32  30  93 N9        30.21R VSB 1/4 WCI  24
CENTENNIAL     LGT SNOW  28  26  92 N12       30.17R VSB 3/4 WCI  18
BROOMFIELD     LGT SNOW  30  28  93 N12       30.19S VSB 1   WCI  21
FORT COLLINS   LGT SNOW  33  28  81 NE14      30.23S WCI  23
LONGMONT       LGT SNOW  35  31  87 N12       30.24R WCI  26
$$

COZ041-046-047-076>085-087-088-291800-
...PIKES PEAK/PALMER DIVIDE AND SOUTHERN FOOTHILLS...

CITY           SKY/WX    TMP DP  RH WIND       PRES   REMARKS
COLO. SPRINGS  LGT SNOW  31  23  72 N22       30.11R FOG     WCI  18
A. F. ACADEMY  MIX PCPN  27  23  84 N14       30.10S WCI  16
SCHRIEVER AFB  FLURRIES  28  24  84 N22       30.09  WCI  14
ELLICOTT       LGT SNOW N/A N/A N/A NE22      30.07R
FALCON         LGT SNOW  29  21  72 N22G30    30.09S WCI  15
FORT CARSON    NOT AVBL
LIMON          LGT SNOW  30  27  88 N22G31    30.10F FOG     WCI  17
MONUMENT HILL  CLOUDY    25  21  86 N18       30.12R WCI  11
TRINIDAD       SNOW      29  25  85 N17G26    30.05F VSB 1/2 WCI  17
$$

COZ042>045-048>051-090-091-291800-
...NORTHEAST COLORADO...

CITY           SKY/WX    TMP DP  RH WIND       PRES   REMARKS
GREELEY ARPT   LGT SNOW  34  28  80 NE12G18   30.23R WCI  25
AKRON          CLOUDY    33  24  69 N20       30.16S WCI  21
BURLINGTON     NOT AVBL
WRAY           NOT AVBL
STERLING       CLOUDY    39  25  56 NE12G21   30.18S
HOLYOKE        FAIR      41  28  60 NE20G25   30.17S
FORT MORGAN    CLOUDY    34  25  68 N16       30.21S WCI  24
$$

COZ086-089-092>099-291800-
...SOUTHEAST COLORADO...

CITY           SKY/WX    TMP DP  RH WIND       PRES   REMARKS
PUEBLO         LGT SNOW  34  30  85 N10       30.12S FOG     WCI  26
LA JUNTA       LGT SNOW  34  31  88 N23       30.08R FOG     WCI  22
LAMAR          LGT SNOW  34  31  88 NE18G28   30.04F VSB 1   WCI  23
SPRINGFIELD      N/A     32  30  92 N28       29.98F WCI  18
$$




USA.gov is the U.S. government's official web portal to all federal, state and local government web resources and services.